[[{"header":{"parameterUnit":"m.s-1","parameterCategory":1,"la1":30.2991,"la2":30.254,"lo1":-89.0895,"lo2":-89.0444,"dx":0.0017,"dy":0.0017,"nx":28,"ny":28,"refTime":"2022-11-28T15:00:00:Z","depth":0,"parameterNumber":2,"parameterNumberName":"U-component_of_WINDS"},"data":[0,0,0,0,0,0,0,0,0,0,0,0,0,0,0,0,0,0,0,0,0,0,0,0,0,0,0,0,0,0,0,0,0,0,0,0,0,0,0,0,0,0,0,0,0,0,0,0,0,0,0,0,0,0,0,0,0,0,-3.993,-3.9931,0,-3.9987,-3.9988,-3.9989,-3.9953,-3.9951,-3.9949,-3.9948,-4.0004,-4.0007,-4.001,0,0,0,0,0,0,0,0,0,0,0,0,0,-3.9789,-3.9792,-3.993,-3.9931,-3.9932,-3.9987,-3.9988,-3.9989,-3.9953,-3.9951,-3.9949,-3.9947,-4.0003,-4.0007,-4.0011,0,0,0,0,0,0,0,0,0,0,0,0,0,-3.9849,-3.9793,-3.993,-3.9921,-3.992,-3.9987,-3.9988,-3.9989,-3.9953,-3.9951,-3.9948,-3.9946,-4.0002,-4.0006,-4.0011,-4.009,0,0,-4.0025,-4.0027,0,0,0,0,0,0,0,0,-3.9845,-3.9854,-3.9921,-3.9921,-3.9921,-3.996,-3.9959,-4.0023,-3.9954,-3.9941,-3.9948,-3.9945,-3.9992,-3.9997,-4.0013,-4.0093,-4.0095,-4.0026,-4.0028,-4.003,-4.0032,0,0,0,0,0,0,0,-3.9841,-3.9851,-3.9953,-3.9922,-3.9922,-3.9913,-3.9919,-3.9971,-3.998,-3.9942,-3.9939,-3.9946,-3.9991,-4.0009,-4.0014,-4.0096,-4.0025,-4.003,-4.0032,-4.0034,-4.0243,-4.0246,0,0,0,0,0,0,-3.9838,-3.9848,-3.9951,-3.9955,-3.9876,-3.9918,-3.9924,-3.995,-3.9979,-3.9981,-3.9949,-3.9945,-4.0002,-4.0009,-4.0016,-4.0109,-4.003,-4.0035,-4.0037,-4.024,-4.0244,-4.0247,0,0,0,0,0,0,-3.9835,-3.9848,-3.9949,-3.9901,-3.9913,-3.9923,-3.9953,-3.9953,-3.997,-3.9984,-3.9985,-3.9965,-4.0,-4.0009,-4.0072,-4.0111,-4.0037,-4.0041,-4.0237,-4.0241,-4.0245,-4.0297,0,0,0,0,0,0,-3.9831,-3.9847,-3.9877,-3.9902,-3.9916,-4.0004,-3.9955,-3.9956,-3.9979,-3.9974,-4.0,-4.0002,-3.9999,-4.0065,-4.0077,-4.0116,-4.0045,-4.0234,-4.0239,-4.0244,-4.0292,-4.0303,-4.0312,0,0,0,0,0,-3.9826,-3.9889,-3.9879,-3.9891,-3.9954,-4.0006,-4.0014,-4.001,-3.9982,-4.0012,-4.0021,-4.0001,-4.0106,-4.0072,-4.0084,-4.0126,-4.0231,-4.0237,-4.0243,-4.0288,-4.0301,-4.0312,0,0,0,0,0,0,-3.9868,-3.9892,-3.9881,-3.9954,-3.9978,-4.0,-4.0038,-4.0024,-4.0057,-4.0051,-4.0045,-4.0051,-4.0116,-4.0127,-4.009,-4.0204,-4.0164,-4.0173,-4.0193,-4.0206,-4.0215,-4.021,-4.0048,0,0,0,0,0,-3.9886,-3.9927,-3.9946,-4.0008,-4.0022,-4.0028,-4.0051,-4.0046,-4.0071,-4.0081,-4.0094,-4.0119,-4.0157,-4.0182,-4.0219,-4.0295,-4.0299,-4.0329,-4.0339,-4.0347,-4.0354,-4.0394,-4.0408,-4.0267,-4.0267,-4.0267,0,0,-3.9923,-3.9941,-3.9967,-4.0017,-4.0036,-4.0078,-4.0037,-4.0083,-4.0114,-4.0088,-4.0147,-4.0158,-4.0186,-4.0255,-4.0286,-4.0266,-4.0395,-4.0355,-4.0362,-4.0364,-4.0402,-4.0416,-4.0427,-4.0271,-4.0271,-4.027,0,0,-4.0011,-4.003,-4.0083,-4.0103,-4.0132,-4.0136,-4.0149,-4.0174,-4.018,-4.024,-4.0221,-4.0258,-4.0324,-4.0344,-4.0363,-4.0461,-4.0443,-4.0473,-4.0523,-4.0562,-4.0573,-4.0583,-4.0616,-4.0628,-4.048,-4.048,-4.048,0,-4.0052,-4.0115,-4.0112,-4.016,-4.0182,-4.0162,-4.0215,-4.0235,-4.0274,-4.0289,-4.0267,-4.035,-4.0367,-4.0441,-4.0465,-4.0481,-4.0495,-4.0468,-4.0572,-4.0582,-4.0591,-4.0622,-4.0635,-4.0484,-4.0483,-4.0483,-4.0483,0,-4.0164,-4.0209,-4.0249,-4.0287,-4.0314,-4.0365,-4.0369,-4.0397,-4.0391,-4.0397,-4.0458,-4.0478,-4.0518,-4.0535,-4.0529,-4.0608,-4.0595,-4.0573,-4.0532,-4.0608,-4.0637,-4.0649,-4.0488,-4.0487,-4.0486,-4.0485,0,0,-4.0277,-4.0315,-4.0329,-4.0347,-4.0378,-4.0412,-4.0462,-4.0501,-4.0525,-4.0553,-4.0594,-4.0652,-4.0632,-4.0653,-4.065,-4.0685,-4.0759,-4.0658,-4.0659,-4.0674,-4.0845,-4.086,-4.0874,-4.0749,-4.0751,-4.0753,-4.0842,0,-4.0365,-4.0453,-4.0452,-4.0532,-4.0573,-4.0555,-4.0598,-4.0622,-4.063,-4.0665,-4.0674,-4.0714,-4.0686,-4.0699,-4.0733,-4.0742,-4.0792,-4.0736,-4.0785,-4.0787,-4.0776,-4.0889,-4.0905,-4.0988,-4.0854,-4.0856,-4.0857,0,-4.0479,-4.0512,-4.0596,-4.0622,-4.0639,-4.0678,-4.0714,-4.0749,-4.0775,-4.0779,-4.0804,-4.0795,-4.0845,-4.0806,-4.0874,-4.0836,-4.0857,-4.0865,-4.0868,-4.087,-4.0824,-4.0892,-4.1015,-4.1026,-4.0876,-4.0874,-4.0873,0,-4.055,-4.0616,-4.0675,-4.069,-4.0722,-4.075,-4.0765,-4.0789,-4.0813,-4.0845,-4.086,-4.0897,-4.0917,-4.0946,-4.0948,-4.0919,-4.1017,-4.0977,-4.102,-4.102,-4.1038,-4.1037,-4.1163,-4.1056,-4.1056,-4.1056,-4.1056,0,-4.0647,-4.0699,-4.0707,-4.0743,-4.0801,-4.08,-4.0857,-4.0869,-4.0891,-4.0929,-4.0917,-4.0952,-4.0953,-4.0989,-4.0991,-4.1047,-4.1057,-4.106,-4.1059,-4.106,-4.1059,-4.1071,-4.1064,-4.1059,-4.1058,-4.1058,-4.1057,0,-4.0735,-4.0743,-4.0805,-4.0831,-4.0839,-4.088,-4.0902,-4.0936,-4.0944,-4.0992,-4.1003,-4.1015,-4.1057,-4.1062,-4.1111,-4.1113,-4.1179,-4.1174,-4.117,-4.1168,-4.1209,-4.1205,-4.1346,-4.1364,-4.1247,-4.1248,-4.1249,0,-4.0795,-4.0834,-4.0865,-4.0889,-4.0906,-4.0946,-4.097,-4.0972,-4.0997,-4.1032,-4.1062,-4.1103,-4.1135,-4.1204,-4.1217,-4.1254,-4.1248,-4.1295,-4.1253,-4.1252,-4.1246,-4.1242,-4.1246,-4.1302,-4.1303,-4.1304,-4.1305,0,-4.09,-4.0902,-4.0938,-4.0976,-4.1005,-4.1035,-4.1063,-4.1084,-4.1089,-4.1119,-4.1162,-4.1188,-4.1238,-4.1279,-4.1316,-4.1331,-4.1319,-4.1319,-4.133,-4.1329,-4.1324,-4.1325,-4.1189,-4.1315,-4.1314,-4.1313,-4.1313,-4.1312,-4.0974,-4.1008,-4.1034,-4.1075,-4.1097,-4.1123,-4.1156,-4.1169,-4.1205,-4.1247,-4.1246,-4.1293,-4.132,-4.1369,-4.1386,-4.1423,-4.1407,-4.1424,-4.1428,-4.1432,-4.1435,-4.1321,-4.143,-4.143,-4.143,-4.143,-4.1429,0,-4.1076,-4.1092,-4.113,-4.117,-4.1202,-4.119,-4.122,-4.1247,-4.1289,-4.1315,-4.1348,-4.1398,-4.1438,-4.1455,-4.1494,-4.152,-4.1515,-4.153,-4.1526,-4.153,-4.1448,-4.1433,-4.1533,-4.1533,-4.1533,-4.1533,-4.1533,-4.1533,-4.1132,-4.1189,-4.1195,-4.1262,-4.1278,-4.1325,-4.1343,-4.1368,-4.1388,-4.1445,-4.1478,-4.1489,-4.1511,-4.1552,-4.1588,-4.1592,-4.1606,-4.1623,-4.1624,-4.1546,-4.1535,-4.1525,-4.1511,-4.1626,-4.1626,-4.1702,-4.1703,-4.1704]},{"header":{"parameterUnit":"m.s-1","parameterCategory":1,"la1":30.2991,"la2":30.254,"lo1":-89.0895,"lo2":-89.0444,"dx":0.0017,"dy":0.0017,"nx":28,"ny":28,"refTime":"2022-11-28T15:00:00:Z","depth":0,"parameterNumber":3,"parameterNumberName":"V-component_of_WINDS"},"data":[0,0,0,0,0,0,0,0,0,0,0,0,0,0,0,0,0,0,0,0,0,0,0,0,0,0,0,0,0,0,0,0,0,0,0,0,0,0,0,0,0,0,0,0,0,0,0,0,0,0,0,0,0,0,0,0,0,0,2.0115,2.0116,0,2.0196,2.0196,2.0197,2.0188,2.0187,2.0185,2.0184,2.0267,2.0271,2.0274,0,0,0,0,0,0,0,0,0,0,0,0,0,1.9958,1.9961,2.0115,2.0116,2.0117,2.0195,2.0197,2.0198,2.0188,2.0187,2.0185,2.0184,2.0266,2.027,2.0274,0,0,0,0,0,0,0,0,0,0,0,0,0,2.0031,1.9962,2.0115,2.0122,2.0123,2.0195,2.0197,2.0198,2.0189,2.0187,2.0185,2.0183,2.0265,2.027,2.0275,2.0345,0,0,2.0291,2.0293,0,0,0,0,0,0,0,0,2.0027,2.0037,2.012,2.0122,2.0123,2.018,2.0171,2.0247,2.0189,2.0164,2.0184,2.0182,2.024,2.0247,2.0266,2.0349,2.0353,2.0291,2.0294,2.0296,2.0298,0,0,0,0,0,0,0,2.0022,2.0033,2.0147,2.0121,2.0123,2.0122,2.0131,2.0186,2.0212,2.0166,2.0165,2.0175,2.024,2.0261,2.0268,2.0354,2.0291,2.0295,2.0299,2.0301,2.0504,2.0506,0,0,0,0,0,0,2.0015,2.0029,2.0145,2.0149,2.0069,2.0127,2.0136,2.0164,2.0211,2.0216,2.0177,2.0174,2.0254,2.0262,2.0271,2.036,2.0296,2.0301,2.0304,2.0501,2.0504,2.0507,0,0,0,0,0,0,2.0011,2.0025,2.0141,2.0089,2.0104,2.0132,2.0163,2.0166,2.0187,2.0219,2.0224,2.0193,2.0252,2.0264,2.0328,2.0362,2.0303,2.0308,2.0499,2.0502,2.0505,2.0535,0,0,0,0,0,0,2.0007,2.0024,2.005,2.009,2.0107,2.0196,2.0165,2.0169,2.0196,2.0194,2.0236,2.0241,2.0252,2.032,2.0333,2.0368,2.0312,2.0496,2.05,2.0504,2.0531,2.0539,2.0546,0,0,0,0,0,2.0001,2.0054,2.0051,2.0065,2.014,2.0198,2.0207,2.0218,2.0198,2.0226,2.0247,2.024,2.0356,2.0327,2.0341,2.0378,2.0493,2.0499,2.0504,2.0528,2.0538,2.0546,0,0,0,0,0,0,2.0016,2.0059,2.0056,2.0124,2.0157,2.0196,2.023,2.0228,2.0267,2.0264,2.0276,2.0286,2.0351,2.0371,2.0338,2.0451,2.0422,2.0431,2.0436,2.0445,2.0453,2.0447,2.0316,0,0,0,0,0,2.0028,2.007,2.0106,2.0162,2.0179,2.0202,2.0228,2.0234,2.0269,2.0283,2.0309,2.0344,2.0389,2.0418,2.0461,2.0534,2.0545,2.0567,2.0574,2.058,2.0588,2.0632,2.0643,2.0524,2.0524,2.0524,0,0,2.0051,2.008,2.0106,2.0166,2.0193,2.0238,2.0214,2.0262,2.0297,2.029,2.0353,2.0374,2.0414,2.0484,2.0516,2.0502,2.0623,2.0587,2.0592,2.0596,2.0638,2.065,2.066,2.0527,2.0527,2.0526,0,0,2.0118,2.0143,2.0194,2.0222,2.0263,2.0279,2.0291,2.0331,2.0345,2.0408,2.0406,2.0447,2.0523,2.0554,2.0579,2.0662,2.0657,2.0675,2.0714,2.0757,2.0766,2.0775,2.0807,2.0818,2.0682,2.0682,2.0682,0,2.0142,2.021,2.0221,2.0271,2.0299,2.0296,2.035,2.0376,2.0429,2.0449,2.0433,2.0532,2.0558,2.0637,2.0658,2.0677,2.0694,2.067,2.0764,2.0772,2.0781,2.0812,2.0823,2.0684,2.0684,2.0684,2.0684,0,2.0239,2.0287,2.0323,2.0376,2.0408,2.0459,2.048,2.0511,2.0515,2.0533,2.06,2.0632,2.0683,2.0702,2.0706,2.0783,2.0774,2.0761,2.0732,2.0794,2.0823,2.0835,2.0687,2.0687,2.0686,2.0685,0,0,2.0315,2.0376,2.039,2.0415,2.0462,2.05,2.0553,2.0603,2.0631,2.0669,2.0715,2.0782,2.0771,2.08,2.0808,2.0845,2.0912,2.0828,2.0829,2.0844,2.1003,2.1014,2.1027,2.091,2.0912,2.0914,2.1,0,2.0389,2.0481,2.0495,2.0578,2.0624,2.0624,2.067,2.0705,2.0724,2.0767,2.0788,2.0836,2.0817,2.0835,2.0872,2.0896,2.0945,2.089,2.0955,2.0957,2.0946,2.1042,2.1052,2.1132,2.1012,2.1014,2.1015,0,2.0485,2.0527,2.0615,2.066,2.0679,2.0721,2.077,2.0811,2.0852,2.0863,2.0897,2.0901,2.0959,2.0928,2.1008,2.0971,2.0999,2.1015,2.1018,2.1026,2.0991,2.1054,2.1158,2.1171,2.1033,2.1031,2.103,0,2.0536,2.0614,2.0678,2.0699,2.0752,2.0782,2.0805,2.0844,2.0875,2.0919,2.094,2.0989,2.1016,2.1056,2.1074,2.1049,2.1155,2.1124,2.1168,2.1168,2.1191,2.1189,2.1302,2.1206,2.1206,2.1205,2.1205,0,2.0617,2.0671,2.0702,2.0741,2.0803,2.0819,2.088,2.0903,2.0938,2.0984,2.0986,2.1029,2.105,2.1096,2.1111,2.1178,2.1189,2.1202,2.1206,2.1203,2.1202,2.1222,2.1217,2.1209,2.1208,2.1207,2.1207,0,2.0683,2.0705,2.0775,2.0821,2.0833,2.0878,2.0917,2.0956,2.0976,2.1034,2.1048,2.108,2.1135,2.1157,2.1224,2.1234,2.1312,2.131,2.1298,2.13,2.1343,2.1339,2.1474,2.1494,2.1383,2.1384,2.1384,0,2.0734,2.0776,2.0827,2.0858,2.0882,2.0931,2.0964,2.0982,2.1016,2.1068,2.1102,2.1157,2.1202,2.1291,2.1321,2.1373,2.1374,2.1418,2.1382,2.1379,2.1378,2.1376,2.1382,2.1425,2.1426,2.1427,2.1428,0,2.0823,2.0833,2.0879,2.093,2.0969,2.101,2.105,2.1075,2.11,2.1139,2.1196,2.1231,2.1301,2.1357,2.1412,2.1438,2.1439,2.1439,2.1452,2.1451,2.1443,2.145,2.1318,2.1436,2.1435,2.1434,2.1434,2.1434,2.0885,2.0924,2.0967,2.1019,2.1052,2.109,2.113,2.1156,2.1204,2.1263,2.1271,2.1333,2.1377,2.1451,2.1479,2.1529,2.1518,2.1536,2.1541,2.1546,2.1551,2.1434,2.1539,2.1539,2.1538,2.1538,2.1538,0,2.0976,2.1004,2.1052,2.111,2.1152,2.1148,2.1194,2.123,2.1284,2.1325,2.137,2.1438,2.1493,2.1528,2.1585,2.1618,2.162,2.1633,2.1631,2.1638,2.1556,2.154,2.163,2.163,2.163,2.163,2.163,2.163,2.1028,2.1095,2.1111,2.1195,2.1224,2.1284,2.1311,2.1348,2.1381,2.1456,2.1502,2.1525,2.1565,2.1624,2.1676,2.1685,2.1707,2.1721,2.1729,2.1652,2.1643,2.1634,2.1619,2.1725,2.1725,2.1807,2.1808,2.1809]}]]